This is the latest recevied weather packets stored in our database for station/object PA3BWK. If no packets are shown the sender has not sent any weather packets the latest 10 day(s).
| Time | Temp. | Humidity | Pressure | Rain* | Wind** | Luminosity | Snow |
|---|---|---|---|---|---|---|---|
| 1788166922 | 18.33° C | 81% | 1008.4 hPa | 0 mm | - | 114 W/m² | - |
| 1788166864 | 18.33° C | 81% | 1008.4 hPa | 0 mm | - | 232 W/m² | - |
| 1788166803 | 18.33° C | 81% | 1008.4 hPa | 0 mm | - | 134 W/m² | - |
| 1788166743 | 18.33° C | 82% | 1008.4 hPa | 0 mm | - | 447 W/m² | - |
| 1788166682 | 18.33° C | 82% | 1008.4 hPa | 0 mm | - | 104 W/m² | - |
| 1788166624 | 18.33° C | 82% | 1008.4 hPa | 0 mm | - | 120 W/m² | - |
| 1788166562 | 18.33° C | 82% | 1008.3 hPa | 0 mm | - | 130 W/m² | - |
| 1788166503 | 18.33° C | 83% | 1008.4 hPa | 0 mm | - | 162 W/m² | - |
| 1788166442 | 18.33° C | 83% | 1008.3 hPa | 0 mm | - | 104 W/m² | - |
| 1788166382 | 18.33° C | 83% | 1008.3 hPa | 0 mm | - | 78 W/m² | - |
| 1788166323 | 18.33° C | 83% | 1008.3 hPa | 0 mm | - | 78 W/m² | - |
| 1788166262 | 18.33° C | 83% | 1008.4 hPa | 0 mm | - | 125 W/m² | - |
| 1788166220 | 18.33° C | 83% | 1008.4 hPa | 0 mm | - | 114 W/m² | - |
| 1788166143 | 18.33° C | 83% | 1008.3 hPa | 0 mm | - | 114 W/m² | - |
| 1788166083 | 17.78° C | 84% | 1008.4 hPa | 0 mm | - | 78 W/m² | - |
| 1788166023 | 17.78° C | 84% | 1008.2 hPa | 0 mm | - | 113 W/m² | - |
| 1788165962 | 17.78° C | 85% | 1008.3 hPa | 0 mm | - | 99 W/m² | - |
| 1788165904 | 17.78° C | 85% | 1008.1 hPa | 0 mm | - | 158 W/m² | - |
| 1788165842 | 17.78° C | 85% | 1008.2 hPa | 0 mm | - | 158 W/m² | - |
| 1788165782 | 17.78° C | 86% | 1008.2 hPa | 0 mm | - | 169 W/m² | - |
| 1788165724 | 17.78° C | 86% | 1008.1 hPa | 0 mm | - | 165 W/m² | - |
| 1788165663 | 17.78° C | 86% | 1008.2 hPa | 0 mm | - | 172 W/m² | - |
| 1788165603 | 17.78° C | 87% | 1008.1 hPa | 0 mm | - | 107 W/m² | - |
| 1788165543 | 17.78° C | 87% | 1008.3 hPa | 0 mm | - | 143 W/m² | - |
| 1788165483 | 17.78° C | 87% | 1008.2 hPa | 0 mm | - | 134 W/m² | - |
* Rain latest hour (hover to see other rain measurements)
** Current wind speed in m/s (hover to see current wind gust speed)